Location: Corralito
(10.2667°N, 66.9500°W)
Time: 02:39:52
(UTC+00:00)

Cosmos 1331 Rocket - Pass Details

Date: 08 December 2023
Orbit: 748 x 775 km, 74.0° (Epoch: 22 February)

Event Time Altitude Azimuth Distance (km) Brightness Sun altitude
Rises 22:42:13 0° 193° (SSW) 3,237 7.8 -9.1°
Reaches altitude 10° 22:44:35 10° 193° (SSW) 2,312 7.0 -9.6°
Maximum altitude 22:49:51 86° 282° (WNW) 779 4.1 -10.8°
Drops below altitude 10° 22:55:08 10° 12° (NNE) 2,315 6.2 -12.0°
Sets 22:57:30 0° 12° (NNE) 3,241 6.9 -12.6°
